Time,TemperatureF,DewpointF,PressureIn,WindDirection,WindDirectionDegrees,WindSpeedMPH,WindSpeedGustMPH,Humidity,HourlyPrecipIn,Conditions,Clouds,dailyrainin,SolarRadiationWatts/m^2,SoftwareType,DateUTC
2013-05-10 00:12:00,48.0,47.0,-100.00,ENE,60,11.0,23.0,95,0.12,,,0.75,0.000000,,2013-05-10 05:12:00,
2013-05-10 00:22:00,48.0,47.0,-100.00,ENE,60,11.0,23.0,95,0.12,,,0.75,0.000000,,2013-05-10 05:22:00,
2013-05-10 00:32:00,48.0,47.0,-100.00,ENE,60,11.0,23.0,95,0.12,,,0.75,0.000000,,2013-05-10 05:32:00,
2013-05-10 00:42:00,48.0,47.0,-100.00,ENE,60,11.0,23.0,95,0.12,,,0.75,0.000000,,2013-05-10 05:42:00,
2013-05-10 01:12:00,46.0,45.0,-100.00,ENE,60,8.0,26.0,95,0.08,,,0.83,0.000000,,2013-05-10 06:12:00,
2013-05-10 01:21:00,46.0,45.0,-100.00,ENE,60,8.0,26.0,95,0.08,,,0.83,0.000000,,2013-05-10 06:21:00,
2013-05-10 01:32:00,46.0,45.0,-100.00,ENE,60,8.0,26.0,95,0.08,,,0.83,0.000000,,2013-05-10 06:32:00,
2013-05-10 01:42:00,46.0,45.0,-100.00,ENE,60,8.0,26.0,95,0.08,,,0.83,0.000000,,2013-05-10 06:42:00,
2013-05-10 02:12:00,45.0,43.0,-100.00,NE,53,10.0,21.0,94,0.03,,,0.86,0.000000,,2013-05-10 07:12:00,
2013-05-10 02:22:00,45.0,43.0,-100.00,NE,53,10.0,21.0,94,0.03,,,0.86,0.000000,,2013-05-10 07:22:00,
2013-05-10 02:31:00,45.0,43.0,-100.00,NE,53,10.0,21.0,94,0.03,,,0.86,0.000000,,2013-05-10 07:31:00,
2013-05-10 02:42:00,45.0,43.0,-100.00,NE,53,10.0,21.0,94,0.03,,,0.86,0.000000,,2013-05-10 07:42:00,
2013-05-10 03:12:00,44.0,43.0,-100.00,NNE,26,8.0,22.0,95,0.02,,,0.88,0.000000,,2013-05-10 08:12:00,
2013-05-10 03:22:00,44.0,43.0,-100.00,NNE,26,8.0,22.0,95,0.02,,,0.88,0.000000,,2013-05-10 08:22:00,
2013-05-10 03:32:00,44.0,43.0,-100.00,NNE,26,8.0,22.0,95,0.02,,,0.88,0.000000,,2013-05-10 08:32:00,
2013-05-10 03:42:00,44.0,43.0,-100.00,NNE,26,8.0,22.0,95,0.02,,,0.88,0.000000,,2013-05-10 08:42:00,
2013-05-10 04:11:00,43.0,42.0,-100.00,North,360,7.0,18.0,96,0.01,,,0.89,0.000000,,2013-05-10 09:11:00,
2013-05-10 04:21:00,43.0,42.0,-100.00,North,360,7.0,18.0,96,0.01,,,0.89,0.000000,,2013-05-10 09:21:00,
2013-05-10 04:32:00,43.0,42.0,-100.00,North,360,7.0,18.0,96,0.01,,,0.89,0.000000,,2013-05-10 09:32:00,
2013-05-10 04:42:00,43.0,42.0,-100.00,North,360,7.0,18.0,96,0.01,,,0.89,0.000000,,2013-05-10 09:42:00,
2013-05-10 05:12:00,42.0,41.0,-100.00,North,3,6.0,14.0,96,0.01,,,0.90,0.000000,,2013-05-10 10:12:00,
2013-05-10 05:23:00,42.0,41.0,-100.00,North,3,6.0,14.0,96,0.01,,,0.90,0.000000,,2013-05-10 10:23:00,
2013-05-10 05:32:00,42.0,41.0,-100.00,North,3,6.0,14.0,96,0.01,,,0.90,0.000000,,2013-05-10 10:32:00,
2013-05-10 05:42:00,42.0,41.0,-100.00,North,3,6.0,14.0,96,0.01,,,0.90,0.000000,,2013-05-10 10:42:00,
2013-05-10 06:12:00,41.0,40.0,-100.00,North,2,6.0,12.0,96,0.01,,,0.91,0.000000,,2013-05-10 11:12:00,
2013-05-10 06:22:00,41.0,40.0,-100.00,North,2,6.0,12.0,96,0.01,,,0.91,0.000000,,2013-05-10 11:22:00,
2013-05-10 06:32:00,41.0,40.0,-100.00,North,2,6.0,12.0,96,0.01,,,0.91,0.000000,,2013-05-10 11:32:00,
2013-05-10 06:42:00,41.0,40.0,-100.00,North,2,6.0,12.0,96,0.01,,,0.91,0.000000,,2013-05-10 11:42:00,
2013-05-10 09:11:00,43.0,41.0,-100.00,North,4,5.0,10.0,91,-99.99,,,0.91,56.000000,,2013-05-10 14:11:00,
2013-05-10 09:21:00,43.0,41.0,-100.00,North,4,5.0,10.0,91,-99.99,,,0.91,56.000000,,2013-05-10 14:21:00,
2013-05-10 09:32:00,43.0,41.0,-100.00,North,4,5.0,10.0,91,-99.99,,,0.91,56.000000,,2013-05-10 14:32:00,
2013-05-10 09:42:00,43.0,41.0,-100.00,North,4,5.0,10.0,91,-99.99,,,0.91,56.000000,,2013-05-10 14:42:00,
2013-05-10 10:20:00,-999.0,-99.9,-100.00,NNE,23,7.0,13.0,84,0.00,,,0.89,129.000000,,2013-05-10 15:20:00,
2013-05-10 10:32:00,44.0,39.0,-100.00,NNE,23,7.0,13.0,84,0.00,,,0.89,129.000000,,2013-05-10 15:32:00,
2013-05-10 10:42:00,44.0,39.0,-100.00,NNE,23,7.0,13.0,84,0.00,,,0.89,129.000000,,2013-05-10 15:42:00,
2013-05-10 11:12:00,47.0,41.0,-100.00,NE,36,6.0,11.0,79,0.00,,,0.88,253.000000,,2013-05-10 16:12:00,
2013-05-10 11:23:00,47.0,41.0,-100.00,NE,36,6.0,11.0,79,0.00,,,0.88,253.000000,,2013-05-10 16:23:00,
2013-05-10 11:32:00,47.0,41.0,-100.00,NE,36,6.0,11.0,79,0.00,,,0.88,253.000000,,2013-05-10 16:32:00,
2013-05-10 11:42:00,47.0,41.0,-100.00,NE,36,6.0,11.0,79,0.00,,,0.88,253.000000,,2013-05-10 16:42:00,
2013-05-10 12:12:00,49.0,41.0,-100.00,NE,48,6.0,12.0,75,0.00,,,0.88,323.000000,,2013-05-10 17:12:00,
2013-05-10 12:22:00,49.0,41.0,-100.00,NE,48,6.0,12.0,75,0.00,,,0.88,323.000000,,2013-05-10 17:22:00,
2013-05-10 12:32:00,49.0,41.0,-100.00,NE,48,6.0,12.0,75,0.00,,,0.88,323.000000,,2013-05-10 17:32:00,
2013-05-10 12:42:00,49.0,41.0,-100.00,NE,48,6.0,12.0,75,0.00,,,0.88,323.000000,,2013-05-10 17:42:00,
2013-05-10 13:12:00,54.0,44.0,-100.00,North,359,5.0,10.0,69,0.00,,,0.88,486.000000,,2013-05-10 18:12:00,
2013-05-10 13:22:00,54.0,44.0,-100.00,North,359,5.0,10.0,69,0.00,,,0.88,486.000000,,2013-05-10 18:22:00,
2013-05-10 13:34:00,54.0,44.0,-100.00,North,359,5.0,10.0,69,0.00,,,0.88,486.000000,,2013-05-10 18:34:00,
2013-05-10 13:43:00,54.0,44.0,-100.00,North,359,5.0,10.0,69,0.00,,,0.88,486.000000,,2013-05-10 18:43:00,
2013-05-10 14:11:00,56.0,45.0,-100.00,NNW,334,6.0,10.0,66,0.00,,,-99.99,449.000000,,2013-05-10 19:11:00,
2013-05-10 14:21:00,56.0,45.0,-100.00,NNW,334,6.0,10.0,66,0.00,,,-99.99,449.000000,,2013-05-10 19:21:00,
2013-05-10 14:32:00,56.0,45.0,-100.00,NNW,334,6.0,10.0,66,0.00,,,-99.99,449.000000,,2013-05-10 19:32:00,
2013-05-10 14:42:00,56.0,45.0,-100.00,NNW,334,6.0,10.0,66,0.00,,,-99.99,449.000000,,2013-05-10 19:42:00,
2013-05-10 15:12:00,58.0,45.0,-100.00,NNE,16,2.0,9.0,62,0.00,,,0.75,415.000000,,2013-05-10 20:12:00,
2013-05-10 15:21:00,58.0,45.0,-100.00,NNE,16,2.0,9.0,62,0.00,,,0.75,415.000000,,2013-05-10 20:21:00,
2013-05-10 15:32:00,58.0,45.0,-100.00,NNE,16,2.0,9.0,62,0.00,,,0.75,415.000000,,2013-05-10 20:32:00,
2013-05-10 15:41:00,58.0,45.0,-100.00,NNE,16,2.0,9.0,62,0.00,,,0.75,415.000000,,2013-05-10 20:41:00,
2013-05-10 16:11:00,59.0,45.0,-100.00,NW,322,8.0,15.0,59,0.00,,,0.71,456.000000,,2013-05-10 21:11:00,
2013-05-10 16:25:00,59.0,45.0,-100.00,NW,322,8.0,15.0,59,0.00,,,0.71,456.000000,,2013-05-10 21:25:00,
2013-05-10 16:32:00,59.0,45.0,-100.00,NW,322,8.0,15.0,59,0.00,,,0.71,456.000000,,2013-05-10 21:32:00,
2013-05-10 16:43:00,59.0,45.0,-100.00,NW,322,8.0,15.0,59,0.00,,,0.71,456.000000,,2013-05-10 21:43:00,
2013-05-10 17:13:00,60.0,45.0,-100.00,ESE,107,4.0,12.0,57,0.00,,,0.66,420.000000,,2013-05-10 22:13:00,
2013-05-10 17:22:00,60.0,45.0,-100.00,ESE,107,4.0,12.0,57,0.00,,,0.66,420.000000,,2013-05-10 22:22:00,
2013-05-10 17:32:00,60.0,45.0,-100.00,ESE,107,4.0,12.0,57,0.00,,,0.66,420.000000,,2013-05-10 22:32:00,
2013-05-10 17:42:00,60.0,45.0,-100.00,ESE,107,4.0,12.0,57,0.00,,,0.66,420.000000,,2013-05-10 22:42:00,
2013-05-10 18:12:00,62.0,44.0,-100.00,ESE,104,3.0,8.0,52,0.00,,,0.64,455.000000,,2013-05-10 23:12:00,
2013-05-10 18:22:00,62.0,44.0,-100.00,ESE,104,3.0,8.0,52,0.00,,,0.64,455.000000,,2013-05-10 23:22:00,
2013-05-10 18:33:00,62.0,44.0,-100.00,ESE,104,3.0,8.0,52,0.00,,,0.64,455.000000,,2013-05-10 23:33:00,
2013-05-10 18:42:00,62.0,44.0,-100.00,ESE,104,3.0,8.0,52,0.00,,,0.64,455.000000,,2013-05-10 23:42:00,
2013-05-10 19:11:00,62.0,46.0,-100.00,South,175,6.0,10.0,55,0.00,,,0.61,302.000000,,2013-05-11 00:11:00,
2013-05-10 19:21:00,62.0,46.0,-100.00,South,175,6.0,10.0,55,0.00,,,0.61,302.000000,,2013-05-11 00:21:00,
2013-05-10 19:32:00,62.0,46.0,-100.00,South,175,6.0,10.0,55,0.00,,,0.61,302.000000,,2013-05-11 00:32:00,
2013-05-10 19:42:00,62.0,46.0,-100.00,South,175,6.0,10.0,55,0.00,,,0.61,302.000000,,2013-05-11 00:42:00,
2013-05-10 20:11:00,58.0,46.0,-100.00,South,172,6.0,10.0,64,0.00,,,0.54,121.000000,,2013-05-11 01:11:00,
2013-05-10 20:21:00,58.0,46.0,-100.00,South,172,6.0,10.0,64,0.00,,,0.54,121.000000,,2013-05-11 01:21:00,
2013-05-10 20:32:00,58.0,46.0,-100.00,South,172,6.0,10.0,64,0.00,,,0.54,121.000000,,2013-05-11 01:32:00,
2013-05-10 20:42:00,58.0,46.0,-100.00,South,172,6.0,10.0,64,0.00,,,0.54,121.000000,,2013-05-11 01:42:00,
2013-05-10 21:11:00,52.0,45.0,-100.00,South,184,5.0,9.0,78,0.00,,,0.44,6.000000,,2013-05-11 02:11:00,
2013-05-10 21:22:00,52.0,45.0,-100.00,South,184,5.0,9.0,78,0.00,,,0.44,6.000000,,2013-05-11 02:22:00,
2013-05-10 21:32:00,52.0,45.0,-100.00,South,184,5.0,9.0,78,0.00,,,0.44,6.000000,,2013-05-11 02:32:00,
2013-05-10 21:42:00,52.0,45.0,-100.00,South,184,5.0,9.0,78,0.00,,,0.44,6.000000,,2013-05-11 02:42:00,
2013-05-10 22:11:00,50.0,45.0,-100.00,South,182,5.0,7.0,84,0.00,,,0.33,0.000000,,2013-05-11 03:11:00,
2013-05-10 22:21:00,50.0,45.0,-100.00,South,182,5.0,7.0,84,0.00,,,0.33,0.000000,,2013-05-11 03:21:00,
2013-05-10 22:33:00,50.0,45.0,-100.00,South,182,5.0,7.0,84,0.00,,,0.33,0.000000,,2013-05-11 03:33:00,
2013-05-10 22:42:00,50.0,45.0,-100.00,South,182,5.0,7.0,84,0.00,,,0.33,0.000000,,2013-05-11 03:42:00,
2013-05-10 23:12:00,49.0,45.0,-100.00,South,182,5.0,9.0,87,0.00,,,0.28,0.000000,,2013-05-11 04:12:00,
2013-05-10 23:23:00,49.0,45.0,-100.00,South,182,5.0,9.0,87,0.00,,,0.28,0.000000,,2013-05-11 04:23:00,
2013-05-10 23:33:00,49.0,45.0,-100.00,South,182,5.0,9.0,87,0.00,,,0.28,0.000000,,2013-05-11 04:33:00,
2013-05-10 23:43:00,49.0,45.0,-100.00,South,182,5.0,9.0,87,0.00,,,0.28,0.000000,,2013-05-11 04:43:00,